RYR1988 EGCC-EIDW

Flight info

Callsign RYR1988
Flight time N/A
Altitude 24000
Route ASMIM L975 WAL L10 PENIL L28 LELDO M145 BAGSO BAGSO4L
Aircraft B38M/M-SDE1FGHILORVWXY/HB1

Departure

Time 2026-04-30 22:32
Airport Manchester Airport (EGCC)

Arrival

Time N/A
Airport Dublin Airport (EIDW)
Time Latitude Longitude Altitude Speed Heading
2026-04-30 22:06 53.35893 -2.27415 257 ft 0 kts 275°
2026-04-30 22:21 53.35892 -2.27388 257 ft 4 kts 269°
2026-04-30 22:22 53.35896 -2.27345 257 ft 4 kts 244°
2026-04-30 22:22 53.35911 -2.27318 257 ft 4 kts 186°
2026-04-30 22:22 53.35910 -2.27318 257 ft 4 kts 179°
2026-04-30 22:22 53.35885 -2.27317 257 ft 2 kts 179°
2026-04-30 22:23 53.35884 -2.27317 257 ft 0 kts 179°
2026-04-30 22:27 53.35882 -2.27317 257 ft 1 kts 179°
2026-04-30 22:27 53.35799 -2.27315 257 ft 2 kts 179°
2026-04-30 22:28 53.35775 -2.27341 257 ft 8 kts 231°
2026-04-30 22:28 53.35710 -2.27480 256 ft 22 kts 232°
2026-04-30 22:29 53.35250 -2.28264 237 ft 36 kts 230°
2026-04-30 22:29 53.35085 -2.28603 231 ft 38 kts 231°
2026-04-30 22:30 53.34797 -2.29075 221 ft 0 kts 181°
2026-04-30 22:31 53.34720 -2.29051 227 ft 19 kts 157°
2026-04-30 22:32 53.35307 -2.27641 243 ft 132 kts 50°
2026-04-30 22:32 53.36698 -2.24722 1166 ft 173 kts 55°
2026-04-30 22:33 53.39862 -2.20667 3353 ft 242 kts
2026-04-30 22:33 53.42672 -2.23736 4558 ft 266 kts 291°
2026-04-30 22:34 53.44522 -2.32658 4941 ft 275 kts 290°
2026-04-30 22:35 53.46126 -2.38546 5755 ft 278 kts 293°
2026-04-30 22:36 53.46122 -2.51307 9539 ft 287 kts 256°
2026-04-30 22:36 53.45768 -2.54633 10392 ft 295 kts 256°
2026-04-30 22:37 53.44557 -2.65714 11933 ft 342 kts 255°
2026-04-30 22:37 53.44123 -2.69649 12122 ft 343 kts 255°
2026-04-30 22:37 53.43251 -2.77513 12193 ft 343 kts 255°
2026-04-30 22:38 53.42374 -2.85374 12215 ft 343 kts 255°
2026-04-30 22:38 53.41486 -2.93267 13430 ft 345 kts 254°
2026-04-30 22:39 53.41040 -2.97210 14212 ft 351 kts 254°
2026-04-30 22:39 53.39722 -3.09527 16425 ft 370 kts 262°
2026-04-30 22:40 53.42785 -3.21788 18580 ft 403 kts 301°
2026-04-30 22:41 53.47721 -3.33452 20370 ft 414 kts 301°
2026-04-30 22:41 53.51077 -3.41373 21578 ft 420 kts 301°
2026-04-30 22:42 53.57942 -3.57647 23860 ft 433 kts 301°
2026-04-30 22:43 53.61427 -3.66135 24130 ft 446 kts 294°
2026-04-30 22:43 53.63835 -3.75737 24150 ft 446 kts 288°
2026-04-30 22:44 53.66156 -3.85378 24156 ft 446 kts 287°
2026-04-30 22:45 53.70579 -4.03981 22913 ft 416 kts 287°
2026-04-30 22:45 53.71789 -4.13242 21905 ft 398 kts 268°
2026-04-30 22:46 53.72182 -4.22476 21101 ft 391 kts 268°
2026-04-30 22:47 53.72853 -4.40417 19514 ft 378 kts 268°
2026-04-30 22:47 53.73171 -4.49262 18656 ft 376 kts 267°
2026-04-30 22:48 53.73479 -4.58038 17808 ft 371 kts 267°
2026-04-30 22:49 53.73921 -4.70927 16641 ft 362 kts 268°
2026-04-30 22:49 53.74340 -4.83515 15444 ft 355 kts 268°
2026-04-30 22:50 53.74872 -4.99956 13944 ft 346 kts 268°
2026-04-30 22:51 53.75125 -5.08026 13135 ft 341 kts 268°
2026-04-30 22:51 53.74890 -5.15831 12336 ft 325 kts 246°
2026-04-30 22:52 53.74179 -5.19438 11991 ft 322 kts 246°
2026-04-30 22:52 53.72773 -5.26537 11310 ft 316 kts 246°
2026-04-30 22:53 53.71371 -5.33478 10776 ft 305 kts 246°
2026-04-30 22:53 53.70034 -5.40050 10509 ft 287 kts 245°
2026-04-30 22:53 53.69243 -5.43052 10313 ft 274 kts 232°
2026-04-30 22:54 53.66682 -5.47597 9565 ft 269 kts 220°
2026-04-30 22:55 53.62736 -5.54248 8584 ft 265 kts 220°
2026-04-30 22:55 53.60192 -5.58585 8253 ft 250 kts 220°
2026-04-30 22:56 53.57645 -5.61947 8124 ft 224 kts 189°
2026-04-30 22:56 53.53377 -5.59610 8124 ft 223 kts 152°
2026-04-30 22:57 53.50703 -5.57002 8119 ft 222 kts 151°
2026-04-30 22:57 53.47867 -5.55136 8135 ft 221 kts 170°
2026-04-30 22:58 53.44777 -5.55515 7706 ft 243 kts 206°
2026-04-30 22:59 53.41401 -5.62380 6638 ft 261 kts 231°
2026-04-30 22:59 53.38390 -5.69960 5687 ft 260 kts 232°